Time,TemperatureF,DewpointF,PressureIn,WindDirection,WindDirectionDegrees,WindSpeedMPH,WindSpeedGustMPH,Humidity,HourlyPrecipIn,Conditions,Clouds,dailyrainin,SoftwareType,DateUTC
2013-03-25 00:00:00,35.6,34.6,29.60,NE,47,0.0,0.0,96,0.00,,,0.59,Wunderground v.1.15,2013-03-25 04:00:00,
2013-03-25 00:05:00,35.6,34.6,29.60,NE,47,0.0,0.0,96,0.00,,,0.00,Wunderground v.1.15,2013-03-25 04:05:00,
2013-03-25 00:10:00,35.6,34.6,29.60,NE,47,0.0,0.0,96,0.00,,,0.00,Wunderground v.1.15,2013-03-25 04:10:00,
2013-03-25 00:15:00,35.6,34.6,29.59,NE,47,0.0,0.0,96,0.00,,,0.00,Wunderground v.1.15,2013-03-25 04:15:00,
2013-03-25 00:20:00,35.6,34.6,29.60,NE,47,0.0,0.0,96,0.00,,,0.00,Wunderground v.1.15,2013-03-25 04:20:00,
2013-03-25 00:30:00,35.6,34.6,29.59,NE,47,0.0,0.0,96,0.00,,,0.00,Wunderground v.1.15,2013-03-25 04:30:00,
2013-03-25 00:35:00,35.6,34.3,29.59,NE,47,0.0,2.0,95,0.00,,,0.00,Wunderground v.1.15,2013-03-25 04:35:00,
2013-03-25 00:40:00,35.6,34.3,29.60,NE,47,0.0,2.0,95,0.00,,,0.00,Wunderground v.1.15,2013-03-25 04:40:00,
2013-03-25 00:50:00,35.6,34.3,29.60,NE,47,0.0,2.0,95,0.00,,,0.00,Wunderground v.1.15,2013-03-25 04:50:00,
2013-03-25 00:55:00,35.7,34.4,29.59,NE,47,0.0,2.0,95,0.00,,,0.00,Wunderground v.1.15,2013-03-25 04:55:00,
2013-03-25 01:00:00,35.7,34.4,29.59,NE,47,0.0,2.0,95,0.00,,,0.00,Wunderground v.1.15,2013-03-25 05:00:00,
2013-03-25 01:10:00,35.7,34.4,29.58,NE,47,0.0,2.0,95,0.00,,,0.00,Wunderground v.1.15,2013-03-25 05:10:00,
2013-03-25 01:15:00,35.8,34.8,29.59,NE,47,0.0,2.0,96,0.00,,,0.00,Wunderground v.1.15,2013-03-25 05:15:00,
2013-03-25 01:20:00,35.8,34.8,29.58,NE,47,0.0,2.0,96,0.00,,,0.00,Wunderground v.1.15,2013-03-25 05:20:00,
2013-03-25 01:30:00,35.7,34.4,29.57,ESE,108,0.0,2.0,95,0.00,,,0.01,Wunderground v.1.15,2013-03-25 05:30:00,
2013-03-25 01:35:00,35.8,34.8,29.58,NNW,329,0.0,2.0,96,0.00,,,0.01,Wunderground v.1.15,2013-03-25 05:35:00,
2013-03-25 01:40:00,35.8,34.8,29.58,North,350,0.0,2.0,96,0.00,,,0.01,Wunderground v.1.15,2013-03-25 05:40:00,
2013-03-25 01:50:00,35.8,34.8,29.59,North,350,0.0,2.0,96,0.00,,,0.01,Wunderground v.1.15,2013-03-25 05:50:00,
2013-03-25 01:55:00,35.8,34.8,29.59,North,350,0.0,2.0,96,0.00,,,0.01,Wunderground v.1.15,2013-03-25 05:55:00,
2013-03-25 02:00:00,35.8,34.8,29.59,North,350,0.0,2.0,96,0.00,,,0.01,Wunderground v.1.15,2013-03-25 06:00:00,
2013-03-25 02:05:00,35.8,34.8,29.59,North,350,0.0,2.0,96,0.00,,,0.01,Wunderground v.1.15,2013-03-25 06:05:00,
2013-03-25 02:15:00,35.7,34.7,29.58,North,350,0.0,2.0,96,0.00,,,0.01,Wunderground v.1.15,2013-03-25 06:15:00,
2013-03-25 02:20:00,35.7,34.7,29.58,North,350,0.0,2.0,96,0.00,,,0.01,Wunderground v.1.15,2013-03-25 06:20:00,
2013-03-25 02:25:00,35.6,34.6,29.58,North,350,0.0,2.0,96,0.00,,,0.01,Wunderground v.1.15,2013-03-25 06:25:00,
2013-03-25 02:35:00,35.6,34.6,29.58,North,349,0.0,2.0,96,0.00,,,0.02,Wunderground v.1.15,2013-03-25 06:35:00,
2013-03-25 02:40:00,35.6,34.6,29.58,North,350,0.0,2.0,96,0.00,,,0.02,Wunderground v.1.15,2013-03-25 06:40:00,
2013-03-25 02:45:00,35.5,34.5,29.57,North,350,0.0,2.0,96,0.00,,,0.02,Wunderground v.1.15,2013-03-25 06:45:00,
2013-03-25 02:55:00,35.6,34.6,29.58,North,350,0.0,2.0,96,0.00,,,0.02,Wunderground v.1.15,2013-03-25 06:55:00,
2013-03-25 03:00:00,35.6,34.6,29.58,North,350,0.0,2.0,96,0.00,,,0.02,Wunderground v.1.15,2013-03-25 07:00:00,
2013-03-25 03:05:00,35.6,34.6,29.58,North,350,0.0,2.0,96,0.00,,,0.02,Wunderground v.1.15,2013-03-25 07:05:00,
2013-03-25 03:15:00,35.6,34.6,29.58,North,350,0.0,2.0,96,0.00,,,0.02,Wunderground v.1.15,2013-03-25 07:15:00,
2013-03-25 03:20:00,35.6,34.6,29.58,North,350,0.0,2.0,96,0.00,,,0.02,Wunderground v.1.15,2013-03-25 07:20:00,
2013-03-25 03:25:00,35.6,34.6,29.57,North,350,0.0,2.0,96,0.00,,,0.02,Wunderground v.1.15,2013-03-25 07:25:00,
2013-03-25 03:35:00,35.7,34.7,29.57,North,350,0.0,2.0,96,0.00,,,0.02,Wunderground v.1.15,2013-03-25 07:35:00,
2013-03-25 03:40:00,35.7,34.7,29.57,North,350,0.0,2.0,96,0.00,,,0.02,Wunderground v.1.15,2013-03-25 07:40:00,
2013-03-25 03:45:00,35.6,34.6,29.57,North,350,0.0,2.0,96,0.00,,,0.02,Wunderground v.1.15,2013-03-25 07:45:00,
2013-03-25 03:50:00,35.6,34.6,29.57,North,350,0.0,2.0,96,0.00,,,0.02,Wunderground v.1.15,2013-03-25 07:50:00,
2013-03-25 04:00:00,35.6,34.6,29.57,North,350,0.0,2.0,96,0.00,,,0.02,Wunderground v.1.15,2013-03-25 08:00:00,
2013-03-25 04:05:00,35.6,34.6,29.58,North,350,0.0,2.0,96,0.00,,,0.02,Wunderground v.1.15,2013-03-25 08:05:00,
2013-03-25 04:10:00,35.7,34.7,29.58,North,350,0.0,2.0,96,0.00,,,0.02,Wunderground v.1.15,2013-03-25 08:10:00,
2013-03-25 04:15:00,35.8,34.8,29.58,North,350,0.0,2.0,96,0.00,,,0.02,Wunderground v.1.15,2013-03-25 08:15:00,
2013-03-25 04:25:00,35.7,34.7,29.58,North,350,0.0,2.0,96,0.00,,,0.02,Wunderground v.1.15,2013-03-25 08:25:00,
2013-03-25 04:30:00,35.6,34.6,29.58,North,360,0.0,2.0,96,0.00,,,0.02,Wunderground v.1.15,2013-03-25 08:30:00,
2013-03-25 04:40:00,35.2,34.2,29.57,North,360,0.0,2.0,96,0.00,,,0.02,Wunderground v.1.15,2013-03-25 08:40:00,
2013-03-25 04:45:00,35.1,34.1,29.57,North,360,0.0,2.0,96,0.00,,,0.02,Wunderground v.1.15,2013-03-25 08:45:00,
2013-03-25 04:50:00,35.1,34.1,29.56,North,360,0.0,2.0,96,0.00,,,0.02,Wunderground v.1.15,2013-03-25 08:50:00,
2013-03-25 04:55:00,35.0,34.0,29.56,North,360,0.0,2.0,96,0.00,,,0.02,Wunderground v.1.15,2013-03-25 08:55:00,
2013-03-25 05:05:00,34.8,33.8,29.56,North,360,0.0,2.0,96,0.00,,,0.02,Wunderground v.1.15,2013-03-25 09:05:00,
2013-03-25 05:10:00,34.8,33.8,29.56,North,360,0.0,2.0,96,0.00,,,0.02,Wunderground v.1.15,2013-03-25 09:10:00,
2013-03-25 05:15:00,34.8,33.8,29.56,North,360,0.0,2.0,96,0.00,,,0.02,Wunderground v.1.15,2013-03-25 09:15:00,
2013-03-25 05:25:00,34.7,33.7,29.56,North,360,0.0,2.0,96,0.00,,,0.02,Wunderground v.1.15,2013-03-25 09:25:00,
2013-03-25 05:30:00,34.7,33.7,29.56,North,360,0.0,2.0,96,0.00,,,0.02,Wunderground v.1.15,2013-03-25 09:30:00,
2013-03-25 05:35:00,34.7,33.7,29.56,North,360,0.0,2.0,96,0.00,,,0.02,Wunderground v.1.15,2013-03-25 09:35:00,
2013-03-25 05:40:00,34.7,33.7,29.56,North,360,0.0,2.0,96,0.00,,,0.02,Wunderground v.1.15,2013-03-25 09:40:00,
2013-03-25 05:50:00,34.7,33.7,29.56,North,360,0.0,2.0,96,0.00,,,0.02,Wunderground v.1.15,2013-03-25 09:50:00,
2013-03-25 05:55:00,34.7,33.7,29.56,North,360,0.0,2.0,96,0.00,,,0.02,Wunderground v.1.15,2013-03-25 09:55:00,
2013-03-25 06:00:00,34.7,33.7,29.56,North,360,0.0,2.0,96,0.00,,,0.02,Wunderground v.1.15,2013-03-25 10:00:00,
2013-03-25 06:10:00,34.8,33.8,29.56,North,360,0.0,2.0,96,0.00,,,0.02,Wunderground v.1.15,2013-03-25 10:10:00,
2013-03-25 06:15:00,34.8,33.8,29.56,North,360,0.0,2.0,96,0.00,,,0.02,Wunderground v.1.15,2013-03-25 10:15:00,
2013-03-25 06:20:00,34.8,33.8,29.56,North,360,0.0,2.0,96,0.00,,,0.02,Wunderground v.1.15,2013-03-25 10:20:00,
2013-03-25 06:30:00,34.8,33.8,29.56,North,360,0.0,2.0,96,0.00,,,0.02,Wunderground v.1.15,2013-03-25 10:30:00,
2013-03-25 06:35:00,34.9,33.9,29.56,North,360,0.0,2.0,96,0.00,,,0.02,Wunderground v.1.15,2013-03-25 10:35:00,
2013-03-25 06:40:00,34.9,33.9,29.57,North,360,0.0,2.0,96,0.00,,,0.02,Wunderground v.1.15,2013-03-25 10:40:00,
2013-03-25 06:45:00,34.9,33.9,29.57,North,360,0.0,2.0,96,0.00,,,0.02,Wunderground v.1.15,2013-03-25 10:45:00,
2013-03-25 06:55:00,34.9,33.9,29.57,North,360,0.0,2.0,96,0.00,,,0.02,Wunderground v.1.15,2013-03-25 10:55:00,
2013-03-25 07:00:00,35.0,34.0,29.57,North,360,0.0,2.0,96,0.00,,,0.02,Wunderground v.1.15,2013-03-25 11:00:00,
2013-03-25 07:05:00,35.0,34.0,29.56,SE,144,0.0,2.0,96,0.00,,,0.02,Wunderground v.1.15,2013-03-25 11:05:00,
2013-03-25 07:15:00,35.2,34.2,29.57,SE,144,0.0,2.0,96,0.00,,,0.02,Wunderground v.1.15,2013-03-25 11:15:00,
2013-03-25 07:20:00,35.2,34.2,29.57,SE,144,0.0,2.0,96,0.00,,,0.02,Wunderground v.1.15,2013-03-25 11:20:00,
2013-03-25 07:25:00,35.2,34.4,29.58,SE,144,0.0,2.0,97,0.00,,,0.02,Wunderground v.1.15,2013-03-25 11:25:00,
2013-03-25 07:35:00,35.4,34.6,29.58,West,262,0.0,3.0,97,0.00,,,0.02,Wunderground v.1.15,2013-03-25 11:35:00,
2013-03-25 07:40:00,35.4,34.6,29.58,WSW,243,0.0,2.0,97,0.00,,,0.02,Wunderground v.1.15,2013-03-25 11:40:00,
2013-03-25 07:45:00,35.5,34.7,29.59,WSW,254,0.0,2.0,97,0.00,,,0.02,Wunderground v.1.15,2013-03-25 11:45:00,
2013-03-25 07:55:00,35.6,34.8,29.59,West,261,0.0,2.0,97,0.00,,,0.02,Wunderground v.1.15,2013-03-25 11:55:00,
2013-03-25 08:00:00,35.7,34.9,29.59,NW,304,0.0,2.0,97,0.00,,,0.02,Wunderground v.1.15,2013-03-25 12:00:00,
2013-03-25 08:05:00,35.8,35.0,29.59,NW,304,0.0,2.0,97,0.00,,,0.02,Wunderground v.1.15,2013-03-25 12:05:00,
2013-03-25 08:10:00,35.9,35.1,29.59,NW,310,1.0,5.0,97,0.00,,,0.02,Wunderground v.1.15,2013-03-25 12:10:00,
2013-03-25 08:20:00,36.2,35.4,29.59,SSW,195,1.0,1.0,97,0.00,,,0.02,Wunderground v.1.15,2013-03-25 12:20:00,
2013-03-25 08:25:00,36.4,35.6,29.59,West,274,1.0,2.0,97,0.00,,,0.02,Wunderground v.1.15,2013-03-25 12:25:00,
2013-03-25 08:30:00,36.5,35.7,29.59,South,181,0.0,2.0,97,0.00,,,0.02,Wunderground v.1.15,2013-03-25 12:30:00,
2013-03-25 08:35:00,36.6,35.6,29.59,West,265,1.0,2.0,96,0.00,,,0.02,Wunderground v.1.15,2013-03-25 12:35:00,
2013-03-25 08:45:00,36.8,35.8,29.59,West,261,1.0,4.0,96,0.00,,,0.02,Wunderground v.1.15,2013-03-25 12:45:00,
2013-03-25 08:50:00,36.9,35.9,29.59,NW,318,2.0,2.0,96,0.00,,,0.02,Wunderground v.1.15,2013-03-25 12:50:00,
2013-03-25 09:00:00,37.2,36.2,29.59,West,273,1.0,2.0,96,0.00,,,0.02,Wunderground v.1.15,2013-03-25 13:00:00,
2013-03-25 09:05:00,37.3,36.3,29.59,WSW,258,1.0,3.0,96,0.00,,,0.02,Wunderground v.1.15,2013-03-25 13:05:00,
2013-03-25 09:10:00,37.5,36.2,29.59,WNW,286,1.0,2.0,95,0.00,,,0.02,Wunderground v.1.15,2013-03-25 13:10:00,
2013-03-25 09:15:00,37.7,36.4,29.59,WNW,293,2.0,2.0,95,0.00,,,0.02,Wunderground v.1.15,2013-03-25 13:15:00,
2013-03-25 09:25:00,38.3,36.7,29.59,WSW,246,1.0,3.0,94,0.00,,,0.02,Wunderground v.1.15,2013-03-25 13:25:00,
2013-03-25 09:30:00,38.8,37.5,29.59,WNW,301,1.0,2.0,95,0.00,,,0.02,Wunderground v.1.15,2013-03-25 13:30:00,
2013-03-25 09:35:00,39.1,37.2,29.59,WNW,290,2.0,2.0,93,0.00,,,0.02,Wunderground v.1.15,2013-03-25 13:35:00,
2013-03-25 09:45:00,39.7,37.0,29.59,WSW,257,3.0,6.0,90,0.00,,,0.02,Wunderground v.1.15,2013-03-25 13:45:00,
2013-03-25 09:50:00,40.3,37.3,29.59,WNW,300,3.0,5.0,89,0.00,,,0.02,Wunderground v.1.15,2013-03-25 13:50:00,
2013-03-25 09:55:00,40.7,37.4,29.59,WNW,289,3.0,5.0,88,0.00,,,0.02,Wunderground v.1.15,2013-03-25 13:55:00,
2013-03-25 10:05:00,41.3,37.1,29.59,East,84,4.0,7.0,85,0.00,,,0.02,Wunderground v.1.15,2013-03-25 14:05:00,
2013-03-25 10:10:00,41.7,36.3,29.59,WNW,300,3.0,3.0,81,0.00,,,0.02,Wunderground v.1.15,2013-03-25 14:10:00,
2013-03-25 10:15:00,42.2,37.1,29.59,NNW,342,3.0,3.0,82,0.00,,,0.02,Wunderground v.1.15,2013-03-25 14:15:00,
2013-03-25 10:25:00,42.6,34.9,29.59,WSW,237,4.0,8.0,74,0.00,,,0.02,Wunderground v.1.15,2013-03-25 14:25:00,
2013-03-25 10:30:00,42.9,34.8,29.59,SW,227,4.0,6.0,73,0.00,,,0.02,Wunderground v.1.15,2013-03-25 14:30:00,
2013-03-25 10:35:00,43.5,35.1,29.60,SW,233,3.0,6.0,72,0.00,,,0.02,Wunderground v.1.15,2013-03-25 14:35:00,
2013-03-25 10:45:00,44.0,32.2,29.60,NW,318,3.0,5.0,63,0.00,,,0.02,Wunderground v.1.15,2013-03-25 14:45:00,
2013-03-25 10:50:00,44.2,32.0,29.60,WNW,299,4.0,4.0,62,0.00,,,0.02,Wunderground v.1.15,2013-03-25 14:50:00,
2013-03-25 11:00:00,44.7,30.8,29.60,ENE,71,4.0,4.0,58,0.00,,,0.02,Wunderground v.1.15,2013-03-25 15:00:00,
2013-03-25 11:05:00,44.9,30.1,29.60,West,279,5.0,8.0,56,0.00,,,0.02,Wunderground v.1.15,2013-03-25 15:05:00,
2013-03-25 11:10:00,44.8,30.5,29.60,West,263,5.0,10.0,57,0.00,,,0.02,Wunderground v.1.15,2013-03-25 15:10:00,
2013-03-25 11:20:00,45.3,29.6,29.60,WNW,296,6.0,6.0,54,0.00,,,0.02,Wunderground v.1.15,2013-03-25 15:20:00,
2013-03-25 11:25:00,45.6,29.4,29.60,WSW,251,5.0,9.0,53,0.00,,,0.02,Wunderground v.1.15,2013-03-25 15:25:00,
2013-03-25 11:30:00,45.6,28.0,29.60,WNW,292,5.0,7.0,50,0.00,,,0.02,Wunderground v.1.15,2013-03-25 15:30:00,
2013-03-25 11:40:00,45.5,27.4,29.61,WSW,254,7.0,12.0,49,0.00,,,0.02,Wunderground v.1.15,2013-03-25 15:40:00,
2013-03-25 11:45:00,45.8,29.2,29.61,WNW,289,6.0,12.0,52,0.00,,,0.02,Wunderground v.1.15,2013-03-25 15:45:00,
2013-03-25 11:50:00,46.4,30.2,29.61,SW,225,4.0,4.0,53,0.00,,,0.02,Wunderground v.1.15,2013-03-25 15:50:00,
2013-03-25 11:55:00,45.9,27.8,29.61,WNW,300,4.0,12.0,49,0.00,,,0.02,Wunderground v.1.15,2013-03-25 15:55:00,
2013-03-25 12:05:00,44.3,27.3,29.62,West,259,3.0,4.0,51,0.00,,,0.02,Wunderground v.1.15,2013-03-25 16:05:00,
2013-03-25 12:10:00,44.0,29.3,29.63,West,276,4.0,5.0,56,0.00,,,0.02,Wunderground v.1.15,2013-03-25 16:10:00,
2013-03-25 12:15:00,44.0,28.9,29.63,WNW,299,4.0,5.0,55,0.00,,,0.02,Wunderground v.1.15,2013-03-25 16:15:00,
2013-03-25 12:20:00,43.8,28.2,29.63,West,274,3.0,10.0,54,0.00,,,0.02,Wunderground v.1.15,2013-03-25 16:20:00,
2013-03-25 12:30:00,43.3,25.9,29.63,WSW,249,5.0,5.0,50,0.00,,,0.02,Wunderground v.1.15,2013-03-25 16:30:00,
2013-03-25 12:40:00,42.6,27.1,29.63,WNW,290,4.0,4.0,54,0.00,,,0.02,Wunderground v.1.15,2013-03-25 16:40:00,
2013-03-25 12:50:00,42.7,28.9,29.63,WSW,255,4.0,4.0,58,0.00,,,0.02,Wunderground v.1.15,2013-03-25 16:50:00,
2013-03-25 12:55:00,44.4,29.7,29.63,NE,34,4.0,4.0,56,0.00,,,0.02,Wunderground v.1.15,2013-03-25 16:55:00,
2013-03-25 13:00:00,45.6,27.5,29.63,SW,232,5.0,9.0,49,0.00,,,0.02,Wunderground v.1.15,2013-03-25 17:00:00,
2013-03-25 13:05:00,44.8,25.3,29.63,WNW,290,6.0,9.0,46,0.00,,,0.02,Wunderground v.1.15,2013-03-25 17:05:00,
2013-03-25 13:15:00,43.7,24.8,29.64,WNW,298,4.0,5.0,47,0.00,,,0.02,Wunderground v.1.15,2013-03-25 17:15:00,
2013-03-25 13:20:00,43.1,24.2,29.64,NNW,337,5.0,5.0,47,0.00,,,0.02,Wunderground v.1.15,2013-03-25 17:20:00,
2013-03-25 13:30:00,42.7,24.4,29.64,West,277,4.0,4.0,48,0.00,,,0.02,Wunderground v.1.15,2013-03-25 17:30:00,
2013-03-25 13:35:00,43.1,24.2,29.64,West,271,4.0,4.0,47,0.00,,,0.02,Wunderground v.1.15,2013-03-25 17:35:00,
2013-03-25 13:40:00,43.1,24.2,29.63,WNW,294,4.0,4.0,47,0.00,,,0.02,Wunderground v.1.15,2013-03-25 17:40:00,
2013-03-25 13:45:00,43.1,23.2,29.63,NW,306,4.0,4.0,45,0.00,,,0.02,Wunderground v.1.15,2013-03-25 17:45:00,
2013-03-25 13:55:00,43.3,24.4,29.63,West,263,5.0,11.0,47,0.00,,,0.02,Wunderground v.1.15,2013-03-25 17:55:00,
2013-03-25 14:00:00,43.5,24.6,29.63,NNW,339,5.0,5.0,47,0.00,,,0.02,Wunderground v.1.15,2013-03-25 18:00:00,
2013-03-25 14:05:00,43.7,24.2,29.63,WNW,288,3.0,5.0,46,0.00,,,0.02,Wunderground v.1.15,2013-03-25 18:05:00,
2013-03-25 14:10:00,43.7,23.2,29.63,WNW,294,4.0,4.0,44,0.00,,,0.02,Wunderground v.1.15,2013-03-25 18:10:00,
2013-03-25 14:20:00,43.6,23.1,29.63,West,281,4.0,6.0,44,0.00,,,0.02,Wunderground v.1.15,2013-03-25 18:20:00,
2013-03-25 14:25:00,43.7,23.7,29.63,West,281,4.0,6.0,45,0.00,,,0.02,Wunderground v.1.15,2013-03-25 18:25:00,
2013-03-25 14:35:00,44.0,24.5,29.62,WNW,282,3.0,5.0,46,0.00,,,0.02,Wunderground v.1.15,2013-03-25 18:35:00,
2013-03-25 14:40:00,44.3,23.2,29.63,WSW,238,4.0,4.0,43,0.00,,,0.02,Wunderground v.1.15,2013-03-25 18:40:00,
2013-03-25 14:45:00,44.1,22.4,29.62,SE,134,6.0,6.0,42,0.00,,,0.02,Wunderground v.1.15,2013-03-25 18:45:00,
2013-03-25 14:50:00,44.0,23.5,29.63,SW,220,5.0,5.0,44,0.00,,,0.02,Wunderground v.1.15,2013-03-25 18:50:00,
2013-03-25 15:00:00,44.1,23.0,29.63,WNW,298,5.0,7.0,43,0.00,,,0.02,Wunderground v.1.15,2013-03-25 19:00:00,
2013-03-25 15:05:00,43.8,23.8,29.64,West,281,6.0,7.0,45,0.00,,,0.02,Wunderground v.1.15,2013-03-25 19:05:00,
2013-03-25 15:10:00,43.9,24.9,29.64,SW,223,5.0,5.0,47,0.00,,,0.02,Wunderground v.1.15,2013-03-25 19:10:00,
2013-03-25 15:20:00,44.9,24.8,29.63,WSW,244,5.0,5.0,45,0.00,,,0.02,Wunderground v.1.15,2013-03-25 19:20:00,
2013-03-25 15:25:00,45.0,23.8,29.63,West,265,4.0,5.0,43,0.00,,,0.02,Wunderground v.1.15,2013-03-25 19:25:00,
2013-03-25 15:30:00,44.6,24.0,29.63,NW,325,3.0,3.0,44,0.00,,,0.02,Wunderground v.1.15,2013-03-25 19:30:00,
2013-03-25 15:40:00,43.6,23.6,29.64,NW,323,5.0,5.0,45,0.00,,,0.02,Wunderground v.1.15,2013-03-25 19:40:00,
2013-03-25 15:45:00,43.7,24.8,29.64,NW,321,3.0,5.0,47,0.00,,,0.02,Wunderground v.1.15,2013-03-25 19:45:00,
2013-03-25 15:50:00,43.9,24.9,29.64,WSW,250,4.0,4.0,47,0.00,,,0.02,Wunderground v.1.15,2013-03-25 19:50:00,
2013-03-25 16:00:00,44.4,24.9,29.64,NW,306,3.0,3.0,46,0.00,,,0.02,Wunderground v.1.15,2013-03-25 20:00:00,
2013-03-25 16:05:00,44.0,24.0,29.64,NNW,344,3.0,6.0,45,0.00,,,0.02,Wunderground v.1.15,2013-03-25 20:05:00,
2013-03-25 16:10:00,43.7,24.2,29.65,SW,234,3.0,3.0,46,0.00,,,0.02,Wunderground v.1.15,2013-03-25 20:10:00,
2013-03-25 16:20:00,43.8,24.9,29.65,WSW,240,5.0,8.0,47,0.00,,,0.02,Wunderground v.1.15,2013-03-25 20:20:00,
2013-03-25 16:25:00,43.7,25.3,29.65,WNW,283,5.0,8.0,48,0.00,,,0.02,Wunderground v.1.15,2013-03-25 20:25:00,
2013-03-25 16:30:00,43.8,25.4,29.65,WSW,246,4.0,4.0,48,0.00,,,0.02,Wunderground v.1.15,2013-03-25 20:30:00,
2013-03-25 16:35:00,44.1,24.6,29.65,West,276,5.0,5.0,46,0.00,,,0.02,Wunderground v.1.15,2013-03-25 20:35:00,
2013-03-25 16:45:00,44.0,24.5,29.65,WSW,257,6.0,7.0,46,0.00,,,0.02,Wunderground v.1.15,2013-03-25 20:45:00,
2013-03-25 16:50:00,43.8,24.9,29.66,WSW,239,6.0,11.0,47,0.00,,,0.02,Wunderground v.1.15,2013-03-25 20:50:00,
2013-03-25 16:55:00,43.6,25.2,29.66,SW,219,7.0,11.0,48,0.00,,,0.02,Wunderground v.1.15,2013-03-25 20:55:00,
2013-03-25 17:05:00,43.7,25.8,29.66,WNW,300,4.0,6.0,49,0.00,,,0.02,Wunderground v.1.15,2013-03-25 21:05:00,
2013-03-25 17:10:00,44.0,25.5,29.66,NW,310,4.0,4.0,48,0.00,,,0.02,Wunderground v.1.15,2013-03-25 21:10:00,
2013-03-25 17:15:00,44.1,25.6,29.66,WNW,300,3.0,4.0,48,0.00,,,0.02,Wunderground v.1.15,2013-03-25 21:15:00,
2013-03-25 17:25:00,44.5,24.5,29.67,West,279,4.0,10.0,45,0.00,,,0.02,Wunderground v.1.15,2013-03-25 21:25:00,
2013-03-25 17:30:00,44.3,23.2,29.67,WSW,237,6.0,6.0,43,0.00,,,0.02,Wunderground v.1.15,2013-03-25 21:30:00,
2013-03-25 17:35:00,44.1,24.6,29.67,NW,306,4.0,6.0,46,0.00,,,0.02,Wunderground v.1.15,2013-03-25 21:35:00,
2013-03-25 17:45:00,43.9,24.9,29.67,East,96,3.0,3.0,47,0.00,,,0.02,Wunderground v.1.15,2013-03-25 21:45:00,
2013-03-25 17:50:00,43.8,24.3,29.67,WNW,284,2.0,3.0,46,0.00,,,0.02,Wunderground v.1.15,2013-03-25 21:50:00,
2013-03-25 17:55:00,43.7,24.2,29.68,SW,229,3.0,8.0,46,0.00,,,0.02,Wunderground v.1.15,2013-03-25 21:55:00,
2013-03-25 18:05:00,43.8,25.4,29.69,NW,304,4.0,4.0,48,0.00,,,0.02,Wunderground v.1.15,2013-03-25 22:05:00,
2013-03-25 18:10:00,44.6,26.1,29.68,NW,316,3.0,3.0,48,0.00,,,0.02,Wunderground v.1.15,2013-03-25 22:10:00,
2013-03-25 18:15:00,44.7,24.6,29.68,NE,51,2.0,3.0,45,0.00,,,0.02,Wunderground v.1.15,2013-03-25 22:15:00,
2013-03-25 18:25:00,44.1,24.1,29.69,WNW,302,3.0,4.0,45,0.00,,,0.02,Wunderground v.1.15,2013-03-25 22:25:00,
2013-03-25 18:30:00,44.0,24.0,29.69,NNW,336,3.0,3.0,45,0.00,,,0.02,Wunderground v.1.15,2013-03-25 22:30:00,
2013-03-25 18:35:00,43.8,24.9,29.69,NW,320,3.0,3.0,47,0.00,,,0.02,Wunderground v.1.15,2013-03-25 22:35:00,
2013-03-25 18:40:00,43.7,24.2,29.70,NNW,340,3.0,3.0,46,0.00,,,0.02,Wunderground v.1.15,2013-03-25 22:40:00,
2013-03-25 18:50:00,43.7,24.2,29.70,West,263,3.0,4.0,46,0.00,,,0.02,Wunderground v.1.15,2013-03-25 22:50:00,
2013-03-25 18:55:00,43.8,24.3,29.71,NNW,335,3.0,4.0,46,0.00,,,0.02,Wunderground v.1.15,2013-03-25 22:55:00,
2013-03-25 19:00:00,43.7,24.2,29.71,NW,321,3.0,3.0,46,0.00,,,0.02,Wunderground v.1.15,2013-03-25 23:00:00,
2013-03-25 19:05:00,43.3,23.4,29.72,WNW,291,3.0,3.0,45,0.00,,,0.02,Wunderground v.1.15,2013-03-25 23:05:00,
2013-03-25 19:15:00,42.7,22.8,29.72,NNW,331,2.0,4.0,45,0.00,,,0.02,Wunderground v.1.15,2013-03-25 23:15:00,
2013-03-25 19:20:00,42.4,23.1,29.73,West,273,3.0,5.0,46,0.00,,,0.02,Wunderground v.1.15,2013-03-25 23:20:00,
2013-03-25 19:25:00,42.1,22.8,29.73,NE,40,2.0,5.0,46,0.00,,,0.02,Wunderground v.1.15,2013-03-25 23:25:00,
2013-03-25 19:35:00,41.8,23.0,29.73,NW,322,2.0,4.0,47,0.00,,,0.02,Wunderground v.1.15,2013-03-25 23:35:00,
2013-03-25 19:40:00,41.6,22.8,29.74,WNW,295,2.0,2.0,47,0.00,,,0.02,Wunderground v.1.15,2013-03-25 23:40:00,
2013-03-25 19:45:00,41.5,23.2,29.74,WSW,257,2.0,2.0,48,0.00,,,0.02,Wunderground v.1.15,2013-03-25 23:45:00,
2013-03-25 19:55:00,41.3,24.0,29.74,West,281,1.0,2.0,50,0.00,,,0.02,Wunderground v.1.15,2013-03-25 23:55:00,
2013-03-25 20:00:00,41.0,24.2,29.75,WNW,298,0.0,2.0,51,0.00,,,0.02,Wunderground v.1.15,2013-03-26 00:00:00,
2013-03-25 20:05:00,40.8,24.1,29.75,SW,225,1.0,2.0,51,0.00,,,0.02,Wunderground v.1.15,2013-03-26 00:05:00,
2013-03-25 20:15:00,40.6,23.9,29.76,West,265,1.0,5.0,51,0.00,,,0.02,Wunderground v.1.15,2013-03-26 00:15:00,
2013-03-25 20:20:00,40.5,24.7,29.76,WNW,303,1.0,2.0,53,0.00,,,0.02,Wunderground v.1.15,2013-03-26 00:20:00,
2013-03-25 20:25:00,40.5,24.7,29.77,WSW,244,1.0,3.0,53,0.00,,,0.02,Wunderground v.1.15,2013-03-26 00:25:00,
2013-03-25 20:35:00,40.5,24.2,29.77,West,261,2.0,6.0,52,0.00,,,0.02,Wunderground v.1.15,2013-03-26 00:35:00,
2013-03-25 20:40:00,40.3,24.5,29.77,West,263,2.0,4.0,53,0.00,,,0.02,Wunderground v.1.15,2013-03-26 00:40:00,
2013-03-25 20:45:00,40.2,24.4,29.77,NW,313,3.0,4.0,53,0.00,,,0.02,Wunderground v.1.15,2013-03-26 00:45:00,
2013-03-25 20:55:00,40.0,24.7,29.77,WNW,303,3.0,3.0,54,0.00,,,0.02,Wunderground v.1.15,2013-03-26 00:55:00,
2013-03-25 21:00:00,40.0,23.8,29.78,WNW,299,3.0,4.0,52,0.00,,,0.02,Wunderground v.1.15,2013-03-26 01:00:00,
2013-03-25 21:05:00,40.0,23.8,29.78,NW,319,3.0,6.0,52,0.00,,,0.02,Wunderground v.1.15,2013-03-26 01:05:00,
2013-03-25 21:10:00,39.9,23.7,29.79,West,274,2.0,2.0,52,0.00,,,0.02,Wunderground v.1.15,2013-03-26 01:10:00,
2013-03-25 21:20:00,39.7,24.0,29.80,West,274,1.0,2.0,53,0.00,,,0.02,Wunderground v.1.15,2013-03-26 01:20:00,
2013-03-25 21:25:00,39.5,23.8,29.80,NW,309,1.0,2.0,53,0.00,,,0.02,Wunderground v.1.15,2013-03-26 01:25:00,
2013-03-25 21:30:00,39.3,23.6,29.80,WSW,253,1.0,7.0,53,0.00,,,0.02,Wunderground v.1.15,2013-03-26 01:30:00,
2013-03-25 21:40:00,39.0,23.7,29.80,NW,311,2.0,2.0,54,0.00,,,0.02,Wunderground v.1.15,2013-03-26 01:40:00,
2013-03-25 21:45:00,39.1,22.9,29.80,NW,321,2.0,2.0,52,0.00,,,0.02,Wunderground v.1.15,2013-03-26 01:45:00,
2013-03-25 21:50:00,39.0,23.3,29.81,WNW,288,2.0,4.0,53,0.00,,,0.02,Wunderground v.1.15,2013-03-26 01:50:00,
2013-03-25 22:00:00,38.8,23.1,29.81,West,275,3.0,3.0,53,0.00,,,0.02,Wunderground v.1.15,2013-03-26 02:00:00,
2013-03-25 22:05:00,38.9,23.2,29.81,WSW,257,3.0,3.0,53,0.00,,,0.02,Wunderground v.1.15,2013-03-26 02:05:00,
2013-03-25 22:10:00,38.8,23.6,29.81,West,279,2.0,2.0,54,0.00,,,0.02,Wunderground v.1.15,2013-03-26 02:10:00,
2013-03-25 22:15:00,38.6,23.4,29.82,West,275,1.0,2.0,54,0.00,,,0.02,Wunderground v.1.15,2013-03-26 02:15:00,
2013-03-25 22:25:00,38.3,24.4,29.82,WSW,250,1.0,2.0,57,0.00,,,0.02,Wunderground v.1.15,2013-03-26 02:25:00,
2013-03-25 22:30:00,38.1,24.2,29.82,West,265,1.0,11.0,57,0.00,,,0.02,Wunderground v.1.15,2013-03-26 02:30:00,
2013-03-25 22:40:00,37.9,24.4,29.82,WNW,292,2.0,2.0,58,0.00,,,0.02,Wunderground v.1.15,2013-03-26 02:40:00,
2013-03-25 22:45:00,37.9,24.4,29.82,WSW,255,3.0,3.0,58,0.00,,,0.02,Wunderground v.1.15,2013-03-26 02:45:00,
2013-03-25 22:50:00,37.8,24.3,29.82,West,267,2.0,2.0,58,0.00,,,0.02,Wunderground v.1.15,2013-03-26 02:50:00,
2013-03-25 22:55:00,37.7,24.2,29.82,West,263,1.0,3.0,58,0.00,,,0.02,Wunderground v.1.15,2013-03-26 02:55:00,
2013-03-25 23:05:00,37.5,24.1,29.82,West,278,2.0,2.0,58,0.00,,,0.02,Wunderground v.1.15,2013-03-26 03:05:00,
2013-03-25 23:10:00,37.2,24.2,29.83,SSW,208,1.0,1.0,59,0.00,,,0.02,Wunderground v.1.15,2013-03-26 03:10:00,
2013-03-25 23:15:00,37.0,24.4,29.83,West,268,0.0,2.0,60,0.00,,,0.02,Wunderground v.1.15,2013-03-26 03:15:00,
2013-03-25 23:25:00,36.6,24.8,29.83,West,270,0.0,4.0,62,0.00,,,0.02,Wunderground v.1.15,2013-03-26 03:25:00,
2013-03-25 23:30:00,36.5,25.1,29.83,West,262,1.0,2.0,63,0.00,,,0.02,Wunderground v.1.15,2013-03-26 03:30:00,
2013-03-25 23:35:00,36.4,25.4,29.83,NW,306,1.0,2.0,64,0.00,,,0.02,Wunderground v.1.15,2013-03-26 03:35:00,
2013-03-25 23:45:00,36.1,25.5,29.83,SW,232,1.0,2.0,65,0.00,,,0.02,Wunderground v.1.15,2013-03-26 03:45:00,
2013-03-25 23:50:00,35.9,25.6,29.83,NW,306,1.0,1.0,66,0.00,,,0.02,Wunderground v.1.15,2013-03-26 03:50:00,
2013-03-25 23:55:00,35.9,26.0,29.83,West,277,1.0,4.0,67,0.00,,,0.02,Wunderground v.1.15,2013-03-26 03:55:00,